Roosevelt Roads, PR

5:36 PM AST on April 28, 2017 (GMT -0400)
Roosevelt Roads Ns

Weather History for TJNR - April, 2014

Change the Weather History Date:

Monday, April 7, 2014

  Actual Average Record
Temperature  
Mean Temperature 80 °F -  
Max Temperature 82 °F 81 °F 88 °F (2002)
Min Temperature 77 °F 68 °F 69 °F (1997)
Cooling Degree Days 14    
Growing Degree Days 30 (Base 50)    
Moisture  
Dew Point 70 °F    
Average Humidity 72    
Maximum Humidity 79    
Minimum Humidity 66    
Precipitation  
Precipitation 0.00 in - - ()
Sea Level Pressure  
Sea Level Pressure 30.09 in    
Wind  
Wind Speed 9 mph (East)    
Max Wind Speed 14 mph    
Max Gust Speed 21 mph    
Visibility 10 miles    
Events Rain    
Averages and records for this station are not official NWS values.
T = Trace of Precipitation, MM = Missing Value Source: NWS Daily Summary

Daily Weather History Graph

Daily Weather History Graph

Search for Another Location

Airport or City:

Trip Planner

Search our weather history database for the weather conditions in past years. The results will help you decide how hot, cold, wet, or windy it might be!

Date:

Astronomy

Apr. 07, 2014 Rise Set
Actual Time 6:12 AM AST 6:37 PM AST
Civil Twilight 5:50 AM AST 6:59 PM AST
Nautical Twilight 5:24 AM AST 7:25 PM AST
Astronomical Twilight 4:58 AM AST 7:51 PM AST
Moon 12:25 PM AST (4/7) 12:49 AM AST (4/7)
Length of Visible Light 13h 09m
Length of Day
12h 25m
First Quarter, 53% of the Moon is Illuminated
Apr 7
First Quarter
Apr 15
Full
Apr 22
Last Quarter
Apr 29
New
May 6
First Quarter

Hourly Weather History & Observations

Time (AST) Temp. Heat Index Dew Point Humidity Pressure Visibility Wind Dir Wind Speed Gust Speed Precip Events Conditions
12:43 AM 78.8 °F - 69.8 °F 74% 30.09 in 10.0 mi East 6.9 mph - N/A   Mostly Cloudy
12:53 AM 78.1 °F - 69.1 °F 74% 30.09 in 10.0 mi East 8.1 mph 17.3 mph N/A   Mostly Cloudy
1:09 AM 78.8 °F - 68.0 °F 69% 30.08 in 10.0 mi East 10.4 mph - N/A   Mostly Cloudy
1:53 AM 78.1 °F - 68.0 °F 71% 30.06 in 10.0 mi East 10.4 mph - N/A   Scattered Clouds
2:53 AM 78.1 °F - 68.0 °F 71% 30.05 in 10.0 mi East 6.9 mph - N/A   Mostly Cloudy
3:53 AM 77.0 °F - 69.1 °F 76% 30.05 in 10.0 mi East 5.8 mph - N/A   Mostly Cloudy
4:53 AM 78.1 °F - 70.0 °F 76% 30.06 in 10.0 mi East 5.8 mph - N/A   Scattered Clouds
5:53 AM 78.1 °F - 70.0 °F 76% 30.07 in 10.0 mi East 6.9 mph - N/A   Mostly Cloudy
6:53 AM 79.0 °F - 70.0 °F 74% 30.08 in 10.0 mi East 8.1 mph - N/A   Partly Cloudy
7:53 AM 81.0 °F 84.4 °F 70.0 °F 69% 30.10 in 10.0 mi East 9.2 mph - N/A   Mostly Cloudy
8:02 AM 80.6 °F 84.6 °F 71.6 °F 74% 30.10 in 10.0 mi East 10.4 mph - N/A   Mostly Cloudy
8:11 AM 80.6 °F 84.6 °F 71.6 °F 74% 30.10 in 10.0 mi East 12.7 mph - N/A   Mostly Cloudy
8:53 AM 81.0 °F 84.9 °F 71.1 °F 72% 30.11 in 10.0 mi East 12.7 mph 18.4 mph N/A   Mostly Cloudy
9:07 AM 82.4 °F 87.2 °F 71.6 °F 70% 30.11 in 10.0 mi East 9.2 mph 18.4 mph N/A   Overcast
9:14 AM 82.4 °F 86.3 °F 69.8 °F 66% 30.11 in 10.0 mi East 12.7 mph - N/A   Overcast
9:25 AM 82.4 °F 87.2 °F 71.6 °F 70% 30.11 in 10.0 mi East 12.7 mph - N/A   Overcast
9:34 AM 82.4 °F 87.2 °F 71.6 °F 70% 30.11 in 10.0 mi ENE 12.7 mph 18.4 mph N/A   Mostly Cloudy
9:44 AM 82.4 °F 86.3 °F 69.8 °F 66% 30.11 in 10.0 mi East 10.4 mph - N/A   Overcast
9:53 AM 82.0 °F 86.3 °F 71.1 °F 69% 30.12 in 10.0 mi East 10.4 mph - N/A   Overcast
10:53 AM 82.9 °F 88.0 °F 72.0 °F 69% 30.12 in 10.0 mi East 10.4 mph - N/A   Overcast
11:53 AM 82.0 °F 86.3 °F 71.1 °F 69% 30.12 in 10.0 mi ESE 10.4 mph - N/A   Overcast
12:53 PM 79.0 °F - 72.0 °F 79% 30.11 in 9.0 mi ESE 13.8 mph 19.6 mph 0.00 in Rain Light Rain
1:53 PM 82.9 °F 87.5 °F 71.1 °F 67% 30.09 in 10.0 mi ESE 12.7 mph 19.6 mph 0.00 in   Overcast
2:53 PM 82.0 °F 85.9 °F 70.0 °F 67% 30.07 in 10.0 mi ESE 11.5 mph 20.7 mph N/A   Overcast
3:53 PM 82.0 °F 85.9 °F 70.0 °F 67% 30.06 in 10.0 mi ESE 11.5 mph - N/A   Overcast
4:53 PM 81.0 °F 84.4 °F 70.0 °F 69% 30.06 in 10.0 mi East 6.9 mph 16.1 mph N/A   Overcast
5:53 PM 81.0 °F 84.4 °F 70.0 °F 69% 30.06 in 10.0 mi East 9.2 mph - N/A   Overcast
6:53 PM 80.1 °F 83.2 °F 70.0 °F 71% 30.07 in 10.0 mi ESE 8.1 mph - N/A   Overcast
7:53 PM 80.1 °F 83.6 °F 71.1 °F 74% 30.09 in 10.0 mi East 8.1 mph - N/A   Overcast
8:53 PM 80.1 °F 83.2 °F 70.0 °F 71% 30.11 in 10.0 mi East 9.2 mph - N/A   Overcast
9:37 PM 78.8 °F - 69.8 °F 74% 30.11 in 10.0 mi East 6.9 mph - N/A   Overcast
9:53 PM 79.0 °F - 70.0 °F 74% 30.12 in 10.0 mi East 8.1 mph - N/A   Overcast
10:53 PM 79.0 °F - 69.1 °F 72% 30.12 in 10.0 mi East 9.2 mph - N/A   Mostly Cloudy
11:32 PM 78.8 °F - 69.8 °F 74% 30.11 in 10.0 mi East 8.1 mph - N/A   Mostly Cloudy
11:53 PM 78.1 °F - 70.0 °F 76% 30.10 in 10.0 mi East 9.2 mph - N/A   Mostly Cloudy